Regional Weather Roundup
Issued by NWS

Home | Current Version | Previous Version | Text Only | Print | Product List | Glossary Off
Versions: 1 2 3 4 5 6 7 8 9 10 11 12 13 14 15 16 17 18 19 20 21 22 23 24 25 26 27 28 29 30 31 32 33 34 35 36 37 38 39 40 41 42 43 44 45 46 47 48 49 50

190
ASUS45 KBOU 032007
RWRCO

WEATHER ROUNDUP FOR COLORADO
NATIONAL WEATHER SERVICE DENVER/BOULDER CO
100 PM MST SAT DEC 03 2016

NOTE: "FAIR" INDICATES FEW OR NO CLOUDS BELOW 12000 FEET WITH NO
SIGNIFICANT WEATHER AND/OR OBSTRUCTIONS TO VISIBILITY.

COZ001>005-013-030-031-032100-
...NORTHWEST COLORADO...

CITY           SKY/WX    TMP DP  RH WIND       PRES   REMARKS
CRAIG          CLOUDY    28  12  51 NE5       30.13F WCI  23
HAYDEN         FAIR      25  10  54 SE7       30.12F WCI  17
MEEKER         CLOUDY    22  12  65 CALM      30.14F
MOUNT WERNER   NOT AVBL
STEAMBOAT SPGS CLOUDY    21  12  68 CALM      30.11F
WALDEN           N/A     25   9  50 SW17      30.02F WCI  11
$$

COZ006>008-011-032100-
...WEST CENTRAL VALLEYS...

CITY           SKY/WX    TMP DP  RH WIND       PRES   REMARKS
GRAND JUNCTION FAIR      37  19  48 S3        30.16F
MONTROSE       FAIR      34  19  54 CALM      30.16F
EAGLE          PTSUNNY   30  18  59 W3        30.13F
RIFLE          CLOUDY    30  16  56 CALM      30.16F
DELTA          NOT AVBL
NUCLA          FAIR      34  18  51 W5        30.17F WCI  30
$$

COZ017>023-064>068-032100-
...SOUTHWEST COLORADO...

CITY           SKY/WX    TMP DP  RH WIND       PRES   REMARKS
DURANGO        FAIR      37  24  59 SW9       30.04F
CORTEZ         FAIR      41  25  53 W13       30.09F
PAGOSA SPRINGS FAIR      35  21  56 S6        30.04F WCI  30
TELLURIDE      NOT AVBL
WOLF CREEK PAS FAIR      16  16 100 S8        30.06F WCI   5
$$

COZ009-010-012-014-032>034-037-058>063-032100-
...CENTRAL COLORADO...

CITY           SKY/WX    TMP DP  RH WIND       PRES   REMARKS
ASPEN          CLOUDY    26  14  60 N3        30.06F
BUENA VISTA    FAIR      32  15  49 S6        29.96F WCI  26
COPPER MTN     CLOUDY    14   0  52 MISG      29.96F
BERTHOUD PASS  CLOUDY     3  -9  55 N14G32    29.89F WCI -15
COTTONWOOD PAS FAIR      32   0  25 SW12G24   29.96S WCI  23
GUNNISON       FAIR      26  16  65 SW5       30.07F WCI  20
KREMMLING      PTSUNNY   30  18  59 CALM      30.09F
LEADVILLE      CLOUDY    21   1  41 NW14      29.97F WCI   8
MONARCH PASS   CLOUDY    10   9  92 W41       30.02S WCI -15
SALIDA         FAIR      36  15  42 SW15G22   30.04F
SUNLIGHT       CLOUDY   N/A N/A N/A SW5       30.07F
WILKERSON PASS FAIR      19   7  58 N8        29.96S WCI   9
$$

COZ069>075-032100-
...SAN LUIS VALLEY/SANGRE DE CRISTO MOUNTAINS...

CITY           SKY/WX    TMP DP  RH WIND       PRES   REMARKS
ALAMOSA        FAIR      28  20  71 SW8       30.02F WCI  20
LA VETA PASS   FLURRIES  23  19  86 NE30G40   29.92F WCI   5
SAGUACHE       FAIR      32  18  55 S8        30.01F WCI  25
$$

COZ035-036-038>040-032100-
...NORTHERN COLORADO FRONT RANGE...

CITY           SKY/WX    TMP DP  RH WIND       PRES   REMARKS
DENVER INTL AP PTSUNNY   39  12  33 CALM      29.95F
DMNS CITY PARK   N/A     40  10  29 E6        29.94F
AURORA         NOT AVBL
FRONT RANGE AP PTSUNNY   41  10  28 NW6       29.96F
ERIE MUNI ARPT PTSUNNY   37  20  51 CALM      29.96F
BOULDER MUN AP FAIR      37  21  52 CALM      29.94F
CENTENNIAL     PTSUNNY   39   9  29 N3        29.94F
BROOMFIELD     PTSUNNY   37  18  44 CALM      29.95F
FORT COLLINS   FAIR      36  21  55 CALM      29.97F
LONGMONT       FAIR      39  22  50 N5        29.98F
$$

COZ041-046-047-076>085-087-088-032100-
...PIKES PEAK/PALMER DIVIDE AND SOUTHERN FOOTHILLS...

CITY           SKY/WX    TMP DP  RH WIND       PRES   REMARKS
COLO. SPRINGS  PTSUNNY   42  19  39 SE5       29.93F
A. F. ACADEMY  FAIR      40   8  26 W9        29.91F
SCHRIEVER AFB  NOT AVBL
ELLICOTT       FAIR     N/A N/A N/A VRB7      29.91F
FALCON         FAIR      42   8  25 N9        29.93F
FORT CARSON    FAIR      39  18  41 E1        29.92F
LIMON          FAIR      43  15  32 VRB7      29.93F
MONUMENT HILL  FAIR      36   5  27 N10       29.94F
TRINIDAD       FAIR      46  20  35 E8        29.90F
$$

COZ042>045-048>051-090-091-032100-
...NORTHEAST COLORADO...

CITY           SKY/WX    TMP DP  RH WIND       PRES   REMARKS
GREELEY ARPT   FAIR      35  21  56 W7        29.98F WCI  29
AKRON          FAIR      38  20  48 NW8       29.96F
BURLINGTON     PTSUNNY   42  25  50 S13       29.98F
WRAY           FAIR      46  21  36 SW6       29.98
STERLING       FAIR      41  23  48 CALM      29.96F
HOLYOKE        FAIR      46  21  36 SW5       29.98F
FORT MORGAN    CLOUDY    38  20  50 W5        29.97F
$$

COZ086-089-092>099-032100-
...SOUTHEAST COLORADO...

CITY           SKY/WX    TMP DP  RH WIND       PRES   REMARKS
PUEBLO         FAIR      43  21  41 NE9       29.93F
LA JUNTA       FAIR      44  22  41 VRB3      29.94F
LAMAR          FAIR      43  29  57 SE12G21   29.96F
SPRINGFIELD      N/A     39  32  76 S20G26    29.94F
$$




USA.gov is the U.S. government's official web portal to all federal, state and local government web resources and services.